Location: Hokitika
(42.7170°S, 170.9670°E)
Time: 18:55:40
(UTC+13:00)

Cosmos 1709 Rocket - Pass Details

Date: 24 January 2019
Orbit: 949 x 1001 km, 82.9° (Epoch: 22 October)

Event Time Altitude Azimuth Distance (km) Brightness Sun altitude
Exits shadow 23:19:45 33° 36° (NE) 1,610 4.6 -19.3°
Maximum altitude 23:22:13 49° 89° (E) 1,252 4.3 -19.5°
Drops below altitude 10° 23:28:14 10° 162° (SSE) 2,743 6.8 -20.2°
Sets 23:30:49 0° 167° (SSE) 3,690 7.6 -20.5°
